Regional Weather Roundup
Issued by NWS Little Rock, AR

Home | Current Version | Previous Version | Text Only | Print | Product List | Glossary Off
Versions: 1 2 3 4 5 6 7 8 9 10 11 12 13 14 15 16 17 18 19 20 21 22 23 24 25 26 27 28 29 30 31 32 33 34 35 36 37 38 39 40 41 42 43 44 45 46 47 48 49 50

755
ASUS44 KLZK 300805
RWRLZK

WEATHER ROUNDUP FOR ARKANSAS
NATIONAL WEATHER SERVICE LITTLE ROCK AR
300 AM CDT MON MAY 30 2016

NOTE: "FAIR" INDICATES FEW OR NO CLOUDS BELOW 12,000 FEET WITH NO
SIGNIFICANT WEATHER AND/OR OBSTRUCTIONS TO VISIBILITY.

ARZ001-003-010-029-300900-
NORTHWEST ARKANSAS

CITY           SKY/WX    TMP DP  RH WIND       PRES   REMARKS
FAYETTEVILLE   CLEAR     59  59 100 CALM      30.06F
FORT SMITH     CLOUDY    68  64  87 NE3       30.02F
HARRISON       CLEAR     65  63  93 SE3       30.08S
BENTONVILLE    MOCLDY    63  57  82 CALM      30.06F
SILOAM SPGS    PTCLDY    63  54  72 E3        30.07S
HIGHFILL       MOCLDY    62  61  96 CALM      30.06F
$$

ARZ004-005-016-300900-
NORTH CENTRAL ARKANSAS

CITY           SKY/WX    TMP DP  RH WIND       PRES   REMARKS
BATESVILLE     PTCLDY    68  64  88 CALM      30.05S
FLIPPIN        CLOUDY   N/A N/A N/A CALM      30.04S
MTN HOME       CLOUDY    66  64  93 S5        30.06R
$$

ARZ040-041-300900-
WEST CENTRAL ARKANSAS

CITY           SKY/WX    TMP DP  RH WIND       PRES   REMARKS
MENA           MOCLDY    64  63  94 CALM      30.05F
MOUNT IDA      PTCLDY    64  63  96 CALM      30.02F FOG
$$

ARZ009-017-025-026-028-300900-
NORTHEAST ARKANSAS

CITY           SKY/WX    TMP DP  RH WIND       PRES   REMARKS
CORNING          N/A     70  70 100 CALM      30.04F
JONESBORO      CLOUDY    69  67  93 CALM      30.03S
NEWPORT        CLOUDY    71  71 100 NW3       30.04F
WALNUT RIDGE   CLOUDY    70  66  88 N3        30.03F
BLYTHEVILLE    CLOUDY    71  69  93 NE5       30.03F
$$

ARZ022-023-033-042-044-300900-
CENTRAL ARKANSAS

CITY           SKY/WX    TMP DP  RH WIND       PRES   REMARKS
LITTLE ROCK    CLOUDY    65  61  87 CALM      30.03F
N LITTLE ROCK    N/A     67  60  78 CALM      30.01F
JACKSONVILLE   CLOUDY    65  64  97 NE1       30.03S
SEARCY         MOCLDY    66  66 100 CALM      30.05S
HOT SPRINGS    CLOUDY    66  63  90 CALM      30.03F
RUSSELLVILLE   PTCLDY    65  63  93 CALM      30.04F
CLINTON        FAIR      64  64 100 CALM      30.07S FOG
$$

ARZ036-300900-
EAST ARKANSAS

CITY           SKY/WX    TMP DP  RH WIND       PRES   REMARKS
WEST MEMPHIS   CLOUDY    72  70  93 N5        30.01F
$$

ARZ050-053-066-070-073-300900-
SOUTHWEST ARKANSAS

CITY           SKY/WX    TMP DP  RH WIND       PRES   REMARKS
ARKADELPHIA    FAIR      67  67 100 SE3       30.02F
CAMDEN         PTCLDY    66  63  88 CALM      30.03F
TEXARKANA      MOCLDY    67  65  93 S5        30.01F
EL DORADO      PTCLDY    66  64  93 CALM      30.03F
DE QUEEN       MOCLDY    66  65  96 CALM      30.01F
$$

ARZ056-057-069-300900-
SOUTHEAST ARKANSAS

CITY           SKY/WX    TMP DP  RH WIND       PRES   REMARKS
PINE BLUFF     CLOUDY    64  62  93 CALM      30.03F
STUTTGART      CLEAR     66  63  88 SW8       30.05S
MONTICELLO     MOCLDY    67  63  87 CALM      30.04S

$$






USA.gov is the U.S. government's official web portal to all federal, state and local government web resources and services.